Location: Namasale
(1.5000°N, 32.6167°E)
Time: 08:48:13
(UTC+00:00)

Vanguard 1 Rocket - Pass Details

Date: 28 April 2021
Orbit: 652 x 4225 km, 34.3° (Epoch: 15 May)

Event Time Altitude Azimuth Distance (km) Brightness Sun altitude
Rises 07:44:17 0° 260° (W) 7,610 11.8 57.1°
Reaches altitude 10° 07:51:39 10° 271° (W) 5,955 11.4 58.8°
Maximum altitude 08:03:46 24° 319° (NW) 3,584 10.7 61.5°
Drops below altitude 10° 08:11:26 10° 10° (N) 3,627 10.9 63.1°
Sets 08:14:35 0° 25° (NNE) 4,191 11.1 63.8°
